Location: Rock Island IL
(41.5000°N, 90.5500°W)
Time: 18:48:25
(UTC-05:00)

Daily predictions for brighter satellites

Satellite Brightness Start Highest point End
(mag) Time Altitude Azimuth Time Altitude Azimuth Time Altitude Azimuth
Cosmos 2278 Rocket 4.4 19:05:35 10° NW 19:10:31 31° WSW 19:15:25 10° SSW
GPS 2-04 Rocket1 4.0 19:09:01 10° SW 19:11:43 22° SSE 19:14:29 10° ESE
NOAA 12 4.3 19:12:06 10° SE 19:17:09 50° ENE 19:22:16 10° N
Okean 3 Rocket 4.2 19:13:09 10° NNW 19:17:40 66° W 19:22:09 10° S
Cosmos 1943 Rocket 4.1 19:16:05 10° NNE 19:18:03 12° NE 19:20:01 10° ENE
SAR-Lupe-1 4.3 19:14:56 10° SSE 19:18:22 49° ENE 19:21:50 10° N
Cosmos 1452 Rocket 3.5 19:14:42 10° NNW 19:19:58 70° ENE 19:25:11 10° SSE
Cosmos 1743 Rocket 4.5 19:16:18 10° NNE 19:20:07 27° ENE 19:23:53 10° SE
Cosmos 1805 3.6 19:18:12 10° SSE 19:21:56 43° E 19:25:41 10° NNE
ALOS 3.6 19:21:33 10° ESE 19:25:01 21° ENE 19:28:30 10° NNE
Cosmos 2369 Rocket 3.2 19:21:37 10° N 19:26:23 27° NE 19:31:02 10° ESE
Cosmos 1943 4.1 19:24:00 10° SSE 19:28:28 25° ESE 19:32:57 10° NE
SL-8 R/B 3.8 19:24:47 10° SW 19:29:30 64° SSE 19:34:14 10° ENE
Resurs 01 Rocket 2.1 19:25:55 10° SE 19:30:02 38° ENE 19:34:10 10° N
Helios 1B rocket 3.2 19:26:24 10° NE 19:30:04 30° E 19:33:42 10° SSE
CENTAUR R/B 3.1 19:25:14 10° S 19:30:28 32° ESE 19:36:12 10° NE
SL-19 R/B 4.5 19:25:40 10° SSE 19:31:19 87° WSW 19:37:23 10° NNW
Gbstr 26 Del rocket 3.9 19:28:06 10° SSW 19:31:58 33° SE 19:36:27 10° ENE
ISS -3.2 19:31:59 10° SW 19:35:09 53° SE 19:37:49 14° ENE
Cosmos 1603 3.7 19:29:49 10° SSW 19:35:30 67° ESE 19:41:13 10° NNE
Cosmos 1953 2.2 19:31:36 10° S 19:35:32 66° E 19:39:29 10° NNE
Meteor 2-12 Rocket 4.5 19:31:23 10° S 19:37:25 60° E 19:43:28 10° NNE
Cosmos 468 4.4 19:33:06 10° S 19:38:19 70° ESE 19:43:32 10° NNE
COSMO-SKYMED 1 3.6 19:34:40 10° N 19:38:53 50° WNW 19:43:04 10° SSW
Cosmos 1420 Rocket 4.1 19:33:52 10° NNW 19:39:07 58° ENE 19:44:21 10° SSE
Cosmos 1733 4.4 19:37:20 10° SE 19:40:22 22° E 19:43:24 10° NE
In-Cosmos 22 4.3 19:39:12 10° N 19:45:00 85° W 19:50:44 10° S
NOSS 3-2 (C) 4.1 19:39:04 10° SW 19:45:06 60° NW 19:51:43 10° NNE
Cosmos 1470 3.4 19:43:58 10° SSE 19:47:28 32° E 19:50:57 10° NNE
Nadezhda 4 Rocket 4.0 19:41:35 10° N 19:47:47 59° E 19:53:51 10° SSE
Cosmos 1674 3.2 19:44:22 10° N 19:48:00 37° ENE 19:51:27 11° SE
Cosmos 1076 Rocket 4.4 19:46:34 10° NNW 19:50:48 54° W 19:55:03 10° S
GP-B 4.3 19:48:39 10° NNE 19:52:09 22° E 19:52:56 21° E
Spot 2 Rocket 3.4 19:48:56 10° SSE 19:53:56 72° ENE 19:58:59 10° N
Abrixas 2.7 19:51:23 10° WSW 19:54:22 67° NNW 19:56:04 23° NE
Cosmos 1766 Rocket 4.2 19:52:06 10° NNW 19:56:23 58° W 20:00:38 10° S
Cosmos 1092 Rocket 4.1 19:51:44 10° N 19:57:46 51° ENE 20:03:43 10° SSE
Cosmos 1048 Rocket 3.9 19:52:52 10° S 19:58:07 69° ESE 20:03:20 10° NNE
Cosmos-2242 3.3 19:56:22 10° SSW 20:00:43 73° W 20:05:08 10° N
Cosmos 2151 3.9 19:57:27 10° NNE 20:01:05 27° ENE 20:01:36 26° E
ATLAS 5 CENTAUR R/B 3.1 19:56:42 10° WSW 20:01:17 41° NW 20:06:15 10° NNE
SJ-6B 4.0 19:59:41 10° S 20:03:33 46° W 20:07:30 10° NNW
Cosmos 1269 Rocket 4.0 19:58:24 10° SSW 20:03:40 89° ESE 20:08:59 10° NNE
HJ-1C 3.4 20:00:47 10° S 20:04:08 81° WSW 20:07:32 10° NNW
FREGAT/IRIS 3.9 20:02:31 10° S 20:05:28 43° W 20:08:27 10° NNW
Cosmos 1346 3.5 20:03:07 10° NNW 20:06:03 60° W 20:08:58 10° S
Cosmos 1544 3.4 20:05:04 10° SSW 20:08:47 69° W 20:12:32 10° N
Cosmos 1174 4.0 20:04:57 10° SSW 20:09:39 56° ESE 20:12:05 21° NE
Cosmos 158 Rocket 3.9 20:05:16 10° S 20:09:58 50° ESE 20:14:41 10° NNE
FengYun 1-2 T 4.1 20:08:39 10° SSE 20:14:10 84° ENE 20:19:41 10° NNW
Cosmos 1634 Rocket 4.1 20:08:12 10° SSE 20:14:11 52° E 20:20:11 10° NNE
USA 215 3.2 20:09:43 10° NE 20:16:13 64° SE 20:22:41 10° SW
CZ-4B DEB 2.6 20:22:25 70° ESE 20:22:39 75° ENE 20:25:56 10° N
OAO 3 Rocket 4.5 20:18:54 10° WSW 20:23:00 29° SSW 20:24:39 23° SSE
Cosmos 1500 Rocket 3.7 20:24:02 10° N 20:28:29 76° W 20:32:52 10° S
Cosmos 1842 Rocket 3.7 20:25:16 10° SSW 20:29:35 74° W 20:33:57 10° N
Cosmos 2195 Rocket 4.5 20:24:49 10° N 20:31:05 61° E 20:34:51 25° SSE
ERS-1 Rocket 4.0 20:35:50 30° NE 20:35:50 30° NE 20:39:26 10° N
Helios 1A 4.1 20:32:43 10° S 20:36:43 43° W 20:40:46 10° NNW
FENGYUN 3A 3.7 20:32:29 12° S 20:37:26 82° WSW 20:42:51 10° NNW
CZ-2D R/B 3.3 20:41:51 61° SSW 20:42:26 77° W 20:46:20 10° NNW
Cosmos 1328 3.7 20:38:46 10° N 20:42:32 78° NNE 20:42:32 78° NNE
Cosmos 1110 Rocket 3.9 20:44:18 10° NNW 20:49:38 75° ENE 20:50:19 64° SE
GPS 2-04 Rocket1 4.3 20:47:53 10° WSW 20:49:39 23° SW 20:49:39 23° SW
H-2A R/B 3.3 20:52:20 54° SW 20:52:44 58° W 20:56:33 10° NNW
ASTEX 1 4.2 20:52:11 10° N 20:56:56 51° W 21:01:39 10° SSW
Cosmos 1627 Rocket 4.5 20:54:50 10° N 21:01:04 81° W 21:04:23 30° S
ALOS 3.4 20:58:47 16° SSW 21:02:11 41° W 21:06:37 10° NNW
Cosmos 1943 Rocket 2.1 20:57:21 10° NNW 21:02:44 65° NE 21:02:44 65° NE
Resurs 01 Rocket 4.2 21:03:23 10° SW 21:06:37 20° W 21:09:53 10° NW
Cosmos 2251 Rocket 3.5 21:02:30 10° SSW 21:07:44 81° WNW 21:13:00 10° NNE
Cosmos 2369 Rocket 3.0 21:05:13 10° NW 21:10:37 47° WSW 21:12:52 31° SSW
ISS -0.6 21:09:01 10° W 21:10:31 20° WNW 21:10:31 20° WNW
Cosmos 1943 4.1 21:06:48 10° SW 21:12:12 46° WNW 21:17:37 10° NNE
Gbstr 26 Del rocket 4.0 21:14:11 10° WSW 21:18:46 53° NNW 21:19:04 52° NNW
Cosmos 2180 Rocket 4.4 21:19:39 68° NNE 21:19:39 68° NNE 21:25:02 10° N
Cosmos 1331 Rocket 4.3 21:15:28 10° NNW 21:20:32 66° W 21:20:32 66° W
CENTAUR R/B 3.4 21:14:50 10° WSW 21:20:47 49° NW 21:27:30 10° NNE
Cosmos 2279 Rocket 4.2 21:32:29 44° SW 21:34:22 64° W 21:40:33 10° N
Envisat 4.3 21:45:49 35° NNW 21:45:49 35° NNW 21:48:48 10° NNW
UNK 4.5 21:33:45 10° WNW 21:48:32 66° N 21:48:32 66° N
USA 215 4.1 21:56:44 33° NNE 21:59:02 44° NNW 22:05:09 10° W
